TimeCDT,TemperatureF,Dew PointF,Humidity,Sea Level PressureIn,VisibilityMPH,Wind Direction,Wind SpeedMPH,Gust SpeedMPH,PrecipitationIn,Events,Conditions,WindDirDegrees,DateUTC
12:53 AM,48.9,39.0,69,29.98,10.0,WSW,8.1,-,N/A,,Partly Cloudy,240,2012-11-01 05:53:00
1:53 AM,48.9,37.9,66,29.97,10.0,WSW,9.2,-,N/A,,Clear,240,2012-11-01 06:53:00
2:53 AM,48.9,37.9,66,29.96,10.0,WSW,10.4,-,N/A,,Clear,240,2012-11-01 07:53:00
3:53 AM,46.9,36.0,66,29.96,10.0,West,10.4,-,N/A,,Clear,270,2012-11-01 08:53:00
4:53 AM,43.0,36.0,76,29.96,10.0,WNW,6.9,-,N/A,,Clear,290,2012-11-01 09:53:00
5:53 AM,45.0,37.9,76,29.98,10.0,NW,8.1,-,N/A,,Clear,320,2012-11-01 10:53:00
6:53 AM,46.0,39.0,76,30.00,10.0,NNW,15.0,-,N/A,,Clear,330,2012-11-01 11:53:00
7:53 AM,44.1,39.0,82,30.02,10.0,NNW,6.9,-,N/A,,Clear,340,2012-11-01 12:53:00
8:53 AM,44.1,39.0,82,30.04,10.0,NNW,9.2,-,N/A,,Clear,340,2012-11-01 13:53:00
9:30 AM,44.6,39.2,81,30.05,10.0,North,15.0,-,N/A,,Scattered Clouds,350,2012-11-01 14:30:00
9:32 AM,44.6,39.2,81,30.05,10.0,North,17.3,-,N/A,,Overcast,350,2012-11-01 14:32:00
9:53 AM,43.0,39.9,89,30.06,9.0,North,16.1,-,N/A,,Overcast,350,2012-11-01 14:53:00
10:53 AM,46.9,42.1,83,30.08,8.0,North,16.1,-,N/A,,Overcast,350,2012-11-01 15:53:00
11:35 AM,50.0,42.8,76,30.06,8.0,North,11.5,-,N/A,,Scattered Clouds,350,2012-11-01 16:35:00
11:53 AM,51.1,42.1,71,30.06,8.0,NNW,10.4,-,N/A,,Clear,340,2012-11-01 16:53:00
12:53 PM,53.1,42.1,66,30.05,8.0,NNE,6.9,-,N/A,,Clear,30,2012-11-01 17:53:00
1:53 PM,57.0,41.0,55,30.01,10.0,Variable,5.8,-,N/A,,Clear,0,2012-11-01 18:53:00
2:53 PM,57.9,41.0,53,29.98,10.0,ENE,8.1,-,N/A,,Clear,60,2012-11-01 19:53:00
3:53 PM,57.9,39.9,51,29.98,10.0,NE,8.1,-,N/A,,Clear,50,2012-11-01 20:53:00
4:53 PM,57.9,39.9,51,29.98,10.0,ENE,8.1,-,N/A,,Clear,70,2012-11-01 21:53:00
5:53 PM,54.0,39.9,59,29.97,9.0,ENE,10.4,-,N/A,,Clear,60,2012-11-01 22:53:00
6:53 PM,46.9,39.0,74,29.97,9.0,ENE,5.8,-,N/A,,Clear,70,2012-11-01 23:53:00
7:53 PM,46.0,39.0,76,29.98,9.0,East,6.9,-,N/A,,Clear,90,2012-11-02 00:53:00
8:53 PM,44.1,37.9,79,29.99,9.0,East,5.8,-,N/A,,Clear,80,2012-11-02 01:53:00
9:53 PM,43.0,37.9,82,29.98,8.0,East,9.2,-,N/A,,Clear,100,2012-11-02 02:53:00
10:53 PM,41.0,37.9,89,29.96,5.0,East,10.4,-,N/A,,Clear,100,2012-11-02 03:53:00
11:53 PM,39.0,37.9,96,29.96,4.0,East,5.8,-,N/A,,Clear,100,2012-11-02 04:53:00